Date,TemperatureHighF,TemperatureAvgF,TemperatureLowF,DewpointHighF,DewpointAvgF,DewpointLowF,HumidityHigh,HumidityAvg,HumidityLow,PressureMaxIn,PressureMinIn,WindSpeedMaxMPH,WindSpeedAvgMPH,GustSpeedMaxMPH,PrecipitationSumIn
2013-3-1,44.0,40.4,36.4,39.9,34.4,30.4,94,80,64,30.36,30.31,5,2,16,0.02
2013-3-2,42.9,38.0,33.6,32.3,30.6,28.9,87,75,66,30.36,30.24,5,1,12,0.00
2013-3-3,47.4,39.0,30.8,37.1,33.4,28.5,93,81,64,30.24,30.07,6,2,16,0.00
2013-3-4,48.2,41.4,36.5,36.1,34.6,32.8,88,77,57,30.06,29.71,7,2,16,0.00
2013-3-5,60.7,47.9,35.8,44.0,39.3,34.0,95,74,53,29.70,29.54,5,1,12,0.00
2013-3-6,57.1,51.1,47.3,44.6,42.5,40.4,85,73,61,29.53,29.46,2,0,12,0.01
2013-3-7,49.9,48.0,45.7,48.1,45.9,43.3,95,92,85,29.47,29.34,2,0,12,0.20
2013-3-8,50.0,48.7,46.8,48.6,47.4,45.4,97,96,95,29.50,29.34,2,0,7,0.48
2013-3-9,46.8,42.8,38.2,45.4,40.2,34.1,96,91,84,29.63,29.49,5,2,12,0.07
2013-3-10,38.3,36.3,33.9,34.1,31.7,28.3,88,83,79,29.70,29.62,8,3,20,0.00
2013-3-11,33.9,31.4,29.2,28.6,24.1,20.4,82,74,63,29.72,29.68,12,6,27,0.00
2013-3-12,40.2,34.0,28.7,32.3,23.2,17.5,86,66,47,29.77,29.70,10,5,26,0.00
2013-3-13,43.4,37.2,33.7,32.3,29.9,27.3,87,75,54,29.90,29.74,10,3,20,0.01
2013-3-14,44.5,37.6,30.1,30.7,27.1,23.2,90,68,44,29.98,29.88,6,1,12,0.01
2013-3-15,47.2,43.0,37.9,41.8,37.5,26.5,90,81,61,29.87,29.52,13,5,23,0.13
2013-3-16,46.0,44.1,42.7,41.7,40.3,38.4,92,86,81,29.51,29.25,10,6,26,0.29
2013-3-17,44.6,41.0,36.0,41.0,37.8,34.1,93,88,80,29.28,29.12,9,2,20,0.18
2013-3-18,46.0,38.7,32.8,40.4,36.3,31.2,97,91,77,29.31,29.17,3,0,13,0.37
2013-3-19,46.6,41.0,37.8,37.6,36.0,34.0,93,83,63,29.47,29.31,3,1,12,0.00
2013-3-20,43.2,39.3,36.1,37.1,35.2,32.3,92,85,77,29.96,29.47,5,1,12,0.00
2013-3-21,43.9,39.6,35.5,34.5,32.7,31.1,85,76,68,29.99,29.89,8,4,21,0.00
2013-3-22,40.8,38.6,36.5,35.4,33.6,31.4,89,82,76,29.88,29.70,13,6,25,0.24
2013-3-23,37.7,34.7,33.6,34.8,32.6,31.8,94,92,88,29.83,29.71,8,4,20,0.47
2013-3-24,34.7,32.9,31.4,31.8,27.5,23.6,91,81,64,29.91,29.83,7,3,20,0.00
2013-3-25,34.7,33.9,32.8,26.2,24.9,23.5,73,70,64,29.93,29.88,6,3,22,0.00
2013-3-26,35.0,34.0,33.1,26.8,24.8,23.7,77,69,64,29.90,29.84,6,3,16,0.00
2013-3-27,38.8,35.0,31.4,27.2,25.2,23.0,80,68,58,29.85,29.81,6,2,15,0.00
2013-3-28,39.4,35.8,30.7,29.2,26.0,21.4,87,69,51,29.91,29.80,7,2,17,0.00
2013-3-29,41.6,36.5,31.6,27.4,25.5,22.6,76,65,47,29.88,29.74,8,2,16,0.00
2013-3-30,41.0,37.0,33.9,31.3,28.4,26.5,80,71,59,29.94,29.74,7,2,14,0.00
2013-3-31,40.6,36.1,30.0,29.2,26.7,24.3,85,69,52,29.94,29.86,3,1,15,0.00